Location: Haulchin
(50.3172°N, 3.4360°E)
Time: 06:41:25
(UTC+00:00)

SL-14 R/B - Pass Details

Date: 23 May 2024
Orbit: 508 x 540 km, 82.4° (Epoch: 19 June)

Event Time Altitude Azimuth Distance (km) Brightness Sun altitude
Exits shadow 01:01:43 30° 238° (WSW) 950 4.1 -16.9°
Maximum altitude 01:03:02 42° 285° (WNW) 756 3.9 -16.9°
Drops below altitude 10° 01:06:44 10° 358° (N) 1,759 7.0 -16.7°
Sets 01:08:57 0° 5° (N) 2,647 8.3 -16.5°
